Home > Weather > Black Mountain > Past weeks

Flag for USA Past Weather in Black Mountain, North Carolina, USA — Yesterday and Last 2 Weeks

Now
81 °F

Scattered clouds.


Feels Like: 81 °F
Forecast: 60 / 77 °F
Wind: No wind

Location: Asheville Regional Airport

Current Time: May 31, 2016 at 1:59:59 PM

Latest Report: May 31, 2016 at 12:54 PM


Visibility: 10 mi

Pressure: 29.95 "Hg (27.57 "Hg at 729m altitude)

Humidity: 42%

Dew Point: 56 °F

Location of Black MountainLocation

Past Weather in Black Mountain — Graph

°F

Black Mountain Temperature Yesterday

Maximum temperature yesterday: 85 °F (at 2:54 PM)
Minimum temperature yesterday: 57 °F (at 4:54 AM)
Average temperature yesterday: 71 °F

High & Low Weather Summary for the Past Weeks

 TemperatureHumidityPressure
High85 °F (May 30, 2:54 PM)96% (May 23, 7:54 AM)30.25 "Hg (May 23, 7:54 AM)
Low46 °F (May 23, 6:58 AM)31% (May 24, 2:54 PM)29.87 "Hg (May 21, 5:54 PM)
Average64 °F70%30.07 "Hg
* Reported May 16 11:54 AM — May 31 11:54 AM, Black Mountain, Weather by CustomWeather, © 2016

Note: Actual official high and low records may vary slightly from our data, if they occured in-between our weather recording intervals... More about our weather records

Advertising

Black Mountain Weather History for the Previous 24 Hours

Scroll right to see more
 ConditionsComfort  
Time TempWeatherWind HumidityBarometerVisibility
11:54 AM
Tue, May 31
79 °FScattered clouds.6 mph58%29.97 "Hg10 mi
10:54 AM76 °FSunny.5 mph62%29.98 "Hg10 mi
9:54 AM73 °FSunny.No wind62%29.98 "Hg10 mi
8:54 AM69 °FPassing clouds.No wind68%29.99 "Hg10 mi
7:54 AM64 °FSunny.5 mph81%29.99 "Hg10 mi
6:54 AM61 °FClear.5 mph87%29.97 "Hg10 mi
5:54 AM61 °FPassing clouds.6 mph87%29.95 "Hg10 mi
4:54 AM62 °FPassing clouds.5 mph86%29.95 "Hg10 mi
3:54 AM64 °FPassing clouds.No wind90%29.94 "Hg10 mi
2:54 AM64 °FPassing clouds.No wind90%29.94 "Hg10 mi
1:54 AM65 °FClear.No wind91%29.94 "Hg9 mi
12:54 AM66 °FOvercast.No wind90%29.96 "Hg10 mi
11:54 PM
Mon, May 30
66 °FLight rain. Overcast.5 mph90%29.99 "Hg10 mi
10:54 PM67 °FLight rain. Mostly cloudy.7 mph81%29.98 "Hg10 mi
9:54 PM73 °FPassing clouds.6 mph50%29.96 "Hg10 mi
8:54 PM74 °FThundershowers. Sunny.8 mph48%29.94 "Hg10 mi
7:54 PM78 °FSunny.12 mph42%29.94 "Hg10 mi
6:54 PM82 °FSunny.16 mph35%29.92 "Hg10 mi
5:54 PM84 °FSunny.13 mph32%29.92 "Hg10 mi
4:54 PM84 °FSunny.13 mph33%29.91 "Hg10 mi
3:54 PM84 °FSunny.14 mph36%29.93 "Hg10 mi
2:54 PM85 °FSunny.14 mph36%29.94 "Hg10 mi
1:54 PM84 °FSunny.14 mph37%29.95 "Hg10 mi
Weather by CustomWeather, © 2016

See weather overviewHow to use our weather pages